Hourly Data Report for August 07, 2018

CLYDE RIVER A
NUNAVUT
Current Station Operator: NAVCAN

70°29'09.000" N
68°31'01.000" W
26.50 m
2400804
71090
YCY

Download Data

Hourly Data (August 2018)
Hourly Data Report for August 7, 2018
TIME
LST
Temp Definition
°C
Dew Point Definition
°C
Rel Hum Definition
%
Precip. Amount Definition
mm

Wind Dir Definition
10's deg

Wind Spd Definition
km/h
Visibility Definition
km
Stn Press Definition
kPa
Hmdx Definition


Wind Chill Definition


Weather Definition


00:00 3.3 1.2 86 0.0 27 5 16.1 99.91     LegendNANA
01:00 3.2 0.8 85 0.0 29 8 16.1 99.92     LegendNANA
02:00 1.6 0.4 92 0.0 33 11 16.1 99.93     LegendNANA
03:00 3.1 0.9 85 0.0 28 5 16.1 99.96     LegendNANA
04:00 3.5 1.1 84 0.0 25 9 16.1 99.95     LegendNANA
05:00 5.0 2.3 83 0.0 29 9 16.1 99.95     LegendNANA
06:00 7.2 2.6 73 0.0 32 22 16.1 99.93     LegendNANA
07:00 8.3 2.2 65 0.0 32 28 16.1 99.90     LegendNANA
08:00 8.7 2.5 65 0.0 33 26 16.1 99.90     LegendNANA
09:00 9.4 2.5 62 0.0 35 28 16.1 99.88     LegendNANA
10:00 8.4 2.8 68 0.0 35 28 16.1 99.88     LegendNANA
11:00 8.7 2.3 64 0.0 36 22 16.1 99.86     LegendNANA
12:00 8.9 2.4 64 0.0 36 24 16.1 99.87     LegendNANA
13:00 8.5 2.4 65 0.0 36 24 16.1 99.87     LegendNANA
14:00 8.2 2.3 66 0.0 1 26 16.1 99.86     LegendNANA
15:00 7.8 1.4 64 0.0 36 24 16.1 99.84     LegendNANA
16:00 7.6 1.9 67 0.0 36 17 16.1 99.87     LegendNANA
17:00 7.4 2.0 69 0.0 1 15 16.1 99.86     LegendNANA
18:00 6.9 1.6 69 0.0 1 17 16.1 99.85     LegendNANA
19:00 6.4 1.7 72 0.0 34 13 16.1 99.85     LegendNANA
20:00 5.8 1.6 74 0.0 33 13 16.1 99.83     LegendNANA
21:00 5.0 1.6 79 0.0 33 15 16.1 99.82     LegendNANA
22:00 3.8 1.2 83 0.0 31 15 16.1 99.82     LegendNANA
23:00 3.0 1.1 87 0.0 31 15 16.1 99.79     LegendNANA

Notes on Data Quality.

Legend

  • E = Estimated
  • M = Missing
  • NA = Not Available*
  • [empty] = Indicates an unobserved value
Date modified: